SES-15 (WAAS/PRN 133)

Last updated on Sat Nov 01 2025 00:03:26 GMT+0000 (Coordinated Universal Time)

1 42709U 17026A 25304.52660963 .00000070 00000+0 00000+0 0 9994 2 42709 0.0290 358.1482 0000175 207.4555 254.9158 1.00267246 5149
UTC large
Height (km)
Speed (km/s)
/
Latitude / Longitude
Inclination (degrees)
Orbital Period (minutes)
Azimuth
Elevation
Range (km)
Doppler Factor

Next 0 passes for location: London (51.5072 / 0.1276)

Sorry there are no passes over London.